When you browse on this site, cookies collect data to enhance your experience and personalize the content and advertising you see.
Visit our Privacy Policy to learn more. By continuing to use the site, you agree to this use of cookies and data.
  • In Schweiz
  • Länderverzeichnis
  • Für 7 Tage
  • Wassertemperatur
  • Satellitenkarten
  • Wetterkarte
  • Widgets
  • user-avatar
    Anmelden

    Stündliche Wetter Xuchang

    Heute, 26 Mai, Sonntag

    Zeit Temperatur Niederschläge Wind Luftdruck Luftfeuchtigkeit
    00:00 +28°C° 0 mm 2 m/S 746 mmHg 66%
    01:00 +27°C° 0 mm 2 m/S 745 mmHg 70%
    02:00 +26°C° 0 mm 2 m/S 745 mmHg 76%
    03:00 +26°C° 0 mm 1 m/S 745 mmHg 78%
    04:00 +26°C° 0 mm 1 m/S 745 mmHg 81%
    05:00 +25°C° 0 mm 1 m/S 745 mmHg 83%
    06:00 +27°C° 0 mm 1 m/S 745 mmHg 78%
    07:00 +28°C° 0 mm 1 m/S 746 mmHg 73%
    08:00 +30°C° 0 mm 1 m/S 746 mmHg 64%
    09:00 +32°C° 0 mm 1 m/S 746 mmHg 57%
    10:00 +33°C° 0 mm 1 m/S 745 mmHg 50%
    11:00 +36°C° 0 mm 2 m/S 745 mmHg 43%
    12:00 +37°C° 0 mm 2 m/S 745 mmHg 39%
    13:00 +38°C° 0 mm 3 m/S 744 mmHg 36%
    14:00 +38°C° 0 mm 3 m/S 744 mmHg 37%
    15:00 +38°C° 0 mm 2 m/S 743 mmHg 35%
    16:00 +39°C° 0 mm 2 m/S 743 mmHg 32%
    17:00 +40°C° 0 mm 2 m/S 743 mmHg 30%
    18:00 +39°C° 0 mm 3 m/S 743 mmHg 28%
    19:00 +37°C° 0 mm 3 m/S 743 mmHg 27%
    20:00 +34°C° 0 mm 2 m/S 744 mmHg 44%
    21:00 +33°C° 0 mm 3 m/S 745 mmHg 36%
    22:00 +33°C° 0 mm 4 m/S 745 mmHg 27%
    23:00 +32°C° 0 mm 6 m/S 746 mmHg 18%

    Morgen, 27 Mai, Montag

    Zeit Temperatur Niederschläge Wind Luftdruck Luftfeuchtigkeit
    00:00 +30°C° 0 mm 6 m/S 746 mmHg 18%
    01:00 +30°C° 0 mm 6 m/S 747 mmHg 18%
    02:00 +29°C° 0 mm 7 m/S 748 mmHg 17%
    03:00 +28°C° 0 mm 7 m/S 749 mmHg 29%
    04:00 +27°C° 0 mm 7 m/S 750 mmHg 41%
    05:00 +24°C° 0 mm 8 m/S 751 mmHg 53%
    06:00 +26°C° 0 mm 8 m/S 752 mmHg 45%
    07:00 +26°C° 0 mm 9 m/S 753 mmHg 37%
    08:00 +26°C° 0 mm 10 m/S 754 mmHg 29%
    09:00 +28°C° 0 mm 9 m/S 754 mmHg 27%
    10:00 +29°C° 0 mm 9 m/S 755 mmHg 25%
    11:00 +31°C° 0 mm 9 m/S 755 mmHg 23%
    12:00 +32°C° 0 mm 8 m/S 755 mmHg 22%
    13:00 +33°C° 0 mm 8 m/S 755 mmHg 21%
    14:00 +33°C° 0 mm 7 m/S 754 mmHg 20%
    15:00 +33°C° 0 mm 7 m/S 754 mmHg 19%
    16:00 +33°C° 0 mm 7 m/S 754 mmHg 17%
    17:00 +33°C° 0 mm 7 m/S 754 mmHg 16%
    18:00 +30°C° 0 mm 5 m/S 754 mmHg 17%
    19:00 +28°C° 0 mm 4 m/S 754 mmHg 18%
    20:00 +26°C° 0 mm 3 m/S 755 mmHg 19%
    21:00 +26°C° 0 mm 3 m/S 755 mmHg 20%
    22:00 +25°C° 0 mm 3 m/S 756 mmHg 22%
    23:00 +25°C° 0 mm 2 m/S 757 mmHg 23%

    übermorgen, 28 Mai, Dienstag

    Zeit Temperatur Niederschläge Wind Luftdruck Luftfeuchtigkeit
    00:00 +24°C° 0 mm 2 m/S 757 mmHg 25%
    01:00 +23°C° 0 mm 2 m/S 757 mmHg 27%
    02:00 +23°C° 0 mm 2 m/S 757 mmHg 29%
    03:00 +22°C° 0 mm 1 m/S 757 mmHg 31%
    04:00 +22°C° 0 mm 1 m/S 757 mmHg 33%
    05:00 +21°C° 0 mm 1 m/S 757 mmHg 35%
    06:00 +23°C° 0 mm 1 m/S 757 mmHg 32%
    07:00 +24°C° 0 mm 1 m/S 757 mmHg 30%
    08:00 +26°C° 0 mm 1 m/S 757 mmHg 27%
    09:00 +27°C° 0 mm 1 m/S 757 mmHg 24%
    10:00 +29°C° 0 mm 1 m/S 757 mmHg 21%
    11:00 +31°C° 0 mm 1 m/S 757 mmHg 18%
    12:00 +31°C° 0 mm 1 m/S 757 mmHg 17%
    13:00 +31°C° 0 mm 1 m/S 756 mmHg 16%
    14:00 +31°C° 0 mm 1 m/S 756 mmHg 15%
    15:00 +31°C° 0 mm 2 m/S 755 mmHg 17%
    16:00 +30°C° 0 mm 3 m/S 755 mmHg 18%
    17:00 +30°C° 0 mm 4 m/S 754 mmHg 19%
    18:00 +28°C° 0 mm 4 m/S 754 mmHg 22%
    19:00 +27°C° 0 mm 5 m/S 754 mmHg 26%
    20:00 +26°C° 0 mm 5 m/S 754 mmHg 29%
    21:00 +25°C° 0 mm 4 m/S 755 mmHg 31%
    22:00 +24°C° 0 mm 3 m/S 755 mmHg 32%
    23:00 +24°C° 0 mm 2 m/S 755 mmHg 34%

    29 Mai, Mittwoch

    Zeit Temperatur Niederschläge Wind Luftdruck Luftfeuchtigkeit
    00:00 +23°C° 0 mm 2 m/S 755 mmHg 36%
    01:00 +21°C° 0 mm 2 m/S 754 mmHg 38%
    02:00 +21°C° 0 mm 1 m/S 754 mmHg 40%
    03:00 +21°C° 0 mm 1 m/S 753 mmHg 39%
    04:00 +21°C° 0 mm 1 m/S 753 mmHg 39%
    05:00 +19°C° 0 mm 0 m/S 753 mmHg 38%
    06:00 +22°C° 0 mm 1 m/S 753 mmHg 35%
    07:00 +24°C° 0 mm 1 m/S 753 mmHg 32%
    08:00 +26°C° 0 mm 2 m/S 753 mmHg 28%
    09:00 +28°C° 0 mm 3 m/S 753 mmHg 25%
    10:00 +30°C° 0 mm 4 m/S 753 mmHg 21%
    11:00 +33°C° 0 mm 4 m/S 753 mmHg 18%
    12:00 +34°C° 0 mm 4 m/S 752 mmHg 17%
    13:00 +35°C° 0 mm 4 m/S 751 mmHg 17%
    14:00 +35°C° 0 mm 4 m/S 750 mmHg 16%
    15:00 +35°C° 0 mm 4 m/S 749 mmHg 17%
    16:00 +35°C° 0 mm 4 m/S 749 mmHg 18%
    17:00 +35°C° 0 mm 3 m/S 748 mmHg 18%
    18:00 +34°C° 0 mm 3 m/S 748 mmHg 21%
    19:00 +31°C° 0 mm 3 m/S 748 mmHg 23%
    20:00 +30°C° 0 mm 3 m/S 748 mmHg 26%
    21:00 +29°C° 0 mm 3 m/S 749 mmHg 27%
    22:00 +28°C° 0 mm 3 m/S 749 mmHg 29%
    23:00 +28°C° 0 mm 3 m/S 749 mmHg 31%

    30 Mai, Donnerstag

    Zeit Temperatur Niederschläge Wind Luftdruck Luftfeuchtigkeit
    00:00 +27°C° 0 mm 3 m/S 749 mmHg 32%
    01:00 +27°C° 0 mm 3 m/S 749 mmHg 33%
    02:00 +27°C° 0 mm 3 m/S 748 mmHg 35%
    03:00 +26°C° 0 mm 3 m/S 748 mmHg 37%
    04:00 +26°C° 0 mm 2 m/S 748 mmHg 40%
    05:00 +26°C° 0 mm 2 m/S 748 mmHg 42%
    06:00 +27°C° 0 mm 3 m/S 748 mmHg 43%
    07:00 +27°C° 0 mm 3 m/S 748 mmHg 44%
    08:00 +28°C° 0 mm 3 m/S 749 mmHg 44%
    09:00 +30°C° 0 mm 3 m/S 749 mmHg 38%
    10:00 +34°C° 0 mm 3 m/S 749 mmHg 32%
    11:00 +36°C° 0 mm 4 m/S 749 mmHg 26%
    12:00 +37°C° 0 mm 4 m/S 748 mmHg 23%
    13:00 +38°C° 0 mm 4 m/S 748 mmHg 20%
    14:00 +40°C° 0 mm 5 m/S 747 mmHg 16%
    15:00 +40°C° 0 mm 6 m/S 747 mmHg 15%
    16:00 +40°C° 0 mm 6 m/S 747 mmHg 14%
    17:00 +40°C° 0 mm 7 m/S 747 mmHg 13%
    18:00 +38°C° 0 mm 6 m/S 747 mmHg 15%
    19:00 +35°C° 0 mm 6 m/S 748 mmHg 17%
    20:00 +33°C° 0 mm 6 m/S 748 mmHg 19%
    21:00 +32°C° 0 mm 5 m/S 749 mmHg 20%
    22:00 +30°C° 0 mm 5 m/S 750 mmHg 20%
    23:00 +29°C° 0 mm 5 m/S 750 mmHg 21%

    31 Mai, Freitag

    Zeit Temperatur Niederschläge Wind Luftdruck Luftfeuchtigkeit
    00:00 +28°C° 0 mm 4 m/S 750 mmHg 21%
    01:00 +28°C° 0 mm 4 m/S 750 mmHg 21%
    02:00 +27°C° 0 mm 4 m/S 750 mmHg 21%
    03:00 +26°C° 0 mm 3 m/S 750 mmHg 23%
    04:00 +25°C° 0 mm 3 m/S 751 mmHg 25%
    05:00 +22°C° 0 mm 3 m/S 751 mmHg 27%
    06:00 +25°C° 0 mm 3 m/S 751 mmHg 26%
    07:00 +26°C° 0 mm 4 m/S 751 mmHg 26%
    08:00 +28°C° 0 mm 4 m/S 752 mmHg 25%
    09:00 +30°C° 0 mm 4 m/S 751 mmHg 24%
    10:00 +33°C° 0 mm 4 m/S 751 mmHg 23%
    11:00 +35°C° 0 mm 4 m/S 751 mmHg 22%
    12:00 +36°C° 0 mm 3 m/S 750 mmHg 22%
    13:00 +37°C° 0 mm 3 m/S 750 mmHg 21%
    14:00 +38°C° 0 mm 3 m/S 749 mmHg 20%
    15:00 +38°C° 0 mm 3 m/S 748 mmHg 21%
    16:00 +37°C° 0 mm 3 m/S 748 mmHg 23%
    17:00 +37°C° 0 mm 4 m/S 748 mmHg 24%
    18:00 +35°C° 0 mm 4 m/S 748 mmHg 27%
    19:00 +34°C° 0 mm 4 m/S 748 mmHg 31%
    20:00 +32°C° 0 mm 4 m/S 748 mmHg 34%
    21:00 +30°C° 0 mm 4 m/S 748 mmHg 38%
    22:00 +29°C° 0 mm 4 m/S 748 mmHg 41%
    23:00 +28°C° 0 mm 3 m/S 748 mmHg 44%
    Mehr zeigen